,,Stat6,,Stat2,,Stat8,,Stat9,,Stat10,,Wind1,,Wind1,
time,status,PA1M_AVG,status,PR1M_SUM,status,RH1M_AVG,status,SR1M_AVG,status,TA1M_AVG,status,W1dAve1m,status,W1sAve1m,
2004-11-26, 00:00:01,VALID,918.746,VALID,0,VALID,99.5005,VALID,-0.0849042,VALID,20.176,VALID,125,VALID,0.517987,
2004-11-26, 00:01:01,VALID,918.736,VALID,0,VALID,99.5348,VALID,-0.0849042,VALID,20.1536,VALID,95,VALID,0.661204,
2004-11-26, 00:02:00,VALID,918.734,VALID,0,VALID,99.62,VALID,0,VALID,20.1287,VALID,97,VALID,0.539663,
2004-11-26, 00:03:00,VALID,918.728,VALID,0,VALID,99.7459,VALID,0,VALID,20.1322,VALID,97,VALID,0.520419,
2004-11-26, 00:04:01,VALID,918.711,VALID,0,VALID,99.6989,VALID,-0.0169808,VALID,20.1166,VALID,97,VALID,0.569767,
2004-11-26, 00:05:00,VALID,918.695,VALID,0,VALID,99.779,VALID,0,VALID,20.1066,VALID,96,VALID,0.634663,
2004-11-26, 00:06:01,VALID,918.703,VALID,0,VALID,99.8998,VALID,-0.0169808,VALID,20.0999,VALID,94,VALID,0.456174,
2004-11-26, 00:07:00,VALID,918.688,VALID,0,VALID,99.9519,VALID,0,VALID,20.1066,VALID,94,VALID,0.455983,
2004-11-26, 00:08:01,VALID,918.692,VALID,0,VALID,100,VALID,0,VALID,20.1099,VALID,94,VALID,0.224414,
2004-11-26, 00:09:00,VALID,918.677,VALID,0,VALID,100,VALID,0,VALID,20.1268,VALID,94,VALID,0.119913,
2004-11-26, 00:10:01,VALID,918.672,VALID,0,VALID,100,VALID,0,VALID,20.1268,VALID,94,VALID,0.00228659,
2004-11-26, 00:11:01,VALID,918.669,VALID,0,VALID,100,VALID,0,VALID,20.1462,VALID,98,VALID,0.227865,
2004-11-26, 00:12:01,VALID,918.659,VALID,0,VALID,100,VALID,-0.0169808,VALID,20.1524,VALID,99,VALID,0.311756,
2004-11-26, 00:13:00,VALID,918.648,VALID,0,VALID,100,VALID,-0.0169808,VALID,20.1524,VALID,99,VALID,0.268403,
2004-11-26, 00:14:01,VALID,918.643,VALID,0,VALID,100,VALID,0,VALID,20.1489,VALID,99,VALID,0.2371,
2004-11-26, 00:15:00,VALID,918.633,VALID,0,VALID,100,VALID,0,VALID,20.1459,VALID,99,VALID,0.351563,
2004-11-26, 00:16:00,VALID,918.612,VALID,0,VALID,100,VALID,0,VALID,20.1519,VALID,99,VALID,0.359193,
2004-11-26, 00:17:01,VALID,918.601,VALID,0,VALID,100,VALID,0,VALID,20.1491,VALID,99,VALID,0.346475,
2004-11-26, 00:18:01,VALID,918.573,VALID,0,VALID,100,VALID,0,VALID,20.1526,VALID,109,VALID,0.559201,
2004-11-26, 00:19:00,VALID,918.541,VALID,0,VALID,100,VALID,-0.0169808,VALID,20.1491,VALID,121,VALID,0.803234,
2004-11-26, 00:20:00,VALID,918.521,VALID,0,VALID,100,VALID,-0.0169808,VALID,20.1529,VALID,127,VALID,0.61875,
2004-11-26, 00:21:01,VALID,918.508,VALID,0,VALID,100,VALID,0,VALID,20.1392,VALID,126,VALID,0.761242,
2004-11-26, 00:22:01,VALID,918.482,VALID,0,VALID,100,VALID,0,VALID,20.1228,VALID,130,VALID,1.24423,
2004-11-26, 00:23:01,VALID,918.469,VALID,0,VALID,100,VALID,0.0169808,VALID,20.1228,VALID,126,VALID,0.85556,
2004-11-26, 00:24:01,VALID,918.457,VALID,0,VALID,100,VALID,-0.0169808,VALID,20.1303,VALID,131,VALID,1.02009,
2004-11-26, 00:25:00,VALID,918.448,VALID,0,VALID,100,VALID,0,VALID,20.1268,VALID,116,VALID,0.942454,
2004-11-26, 00:26:00,VALID,918.431,VALID,0,VALID,100,VALID,-0.0169808,VALID,20.1273,VALID,121,VALID,0.846354,
2004-11-26, 00:27:01,VALID,918.414,VALID,0,VALID,100,VALID,0,VALID,20.1203,VALID,118,VALID,1.01023,
2004-11-26, 00:28:01,VALID,918.409,VALID,0,VALID,100,VALID,0,VALID,20.1101,VALID,116,VALID,0.703488,
2004-11-26, 00:29:01,VALID,918.392,VALID,0,VALID,100,VALID,-0.0169808,VALID,20.1139,VALID,114,VALID,0.532584,
2004-11-26, 00:30:01,VALID,918.382,VALID,0,VALID,100,VALID,0,VALID,20.1171,VALID,124,VALID,0.59811,
2004-11-26, 00:31:01,VALID,918.372,VALID,0,VALID,100,VALID,0,VALID,20.1099,VALID,131,VALID,0.924162,
2004-11-26, 00:32:01,VALID,918.364,VALID,0,VALID,100,VALID,-0.0169808,VALID,20.1136,VALID,128,VALID,0.589935,
2004-11-26, 00:33:01,VALID,918.355,VALID,0,VALID,100,VALID,-0.0169808,VALID,20.1236,VALID,134,VALID,0.615141,
2004-11-26, 00:34:01,VALID,918.35,VALID,0,VALID,100,VALID,-0.0169808,VALID,20.1166,VALID,143,VALID,0.555233,
2004-11-26, 00:35:01,VALID,918.337,VALID,0,VALID,100,VALID,-0.0169808,VALID,20.1203,VALID,144,VALID,0.653409,
2004-11-26, 00:36:01,VALID,918.326,VALID,0,VALID,100,VALID,0.0169808,VALID,20.1104,VALID,131,VALID,0.71689,
2004-11-26, 00:37:01,VALID,918.301,VALID,0,VALID,100,VALID,0,VALID,20.1139,VALID,147,VALID,1.13192,
2004-11-26, 00:38:01,VALID,918.292,VALID,0,VALID,100,VALID,0,VALID,20.1174,VALID,130,VALID,0.778906,
2004-11-26, 00:39:01,VALID,918.273,VALID,0,VALID,100,VALID,-0.0169808,VALID,20.1106,VALID,135,VALID,0.855469,
2004-11-26, 00:40:01,VALID,918.274,VALID,0,VALID,100,VALID,0.0169808,VALID,20.1134,VALID,130,VALID,1.00213,
2004-11-26, 00:41:01,VALID,918.262,VALID,0,VALID,100,VALID,0.0339617,VALID,20.1134,VALID,128,VALID,0.93418,
2004-11-26, 00:42:01,VALID,918.257,VALID,0,VALID,100,VALID,0.0169808,VALID,20.1027,VALID,128,VALID,1.12649,
2004-11-26, 00:43:01,VALID,918.235,VALID,0,VALID,100,VALID,0.0169808,VALID,20.0975,VALID,120,VALID,0.654978,
2004-11-26, 00:44:01,VALID,918.223,VALID,0,VALID,100,VALID,0.0169808,VALID,20.1009,VALID,119,VALID,0.619913,
2004-11-26, 00:45:01,VALID,918.226,VALID,0,VALID,100,VALID,0,VALID,20.0977,VALID,121,VALID,1.09499,
2004-11-26, 00:46:01,VALID,918.198,VALID,0,VALID,100,VALID,0.0169808,VALID,20.0808,VALID,102,VALID,0.807413,
2004-11-26, 00:47:01,VALID,918.187,VALID,0,VALID,100,VALID,0.0169808,VALID,20.0977,VALID,119,VALID,0.854492,
2004-11-26, 00:48:01,VALID,918.171,VALID,0,VALID,100,VALID,0,VALID,20.091,VALID,141,VALID,0.72309,
2004-11-26, 00:49:01,VALID,918.169,VALID,0,VALID,100,VALID,0,VALID,20.0843,VALID,134,VALID,0.659157,
2004-11-26, 00:50:01,VALID,918.163,VALID,0,VALID,100,VALID,0,VALID,20.1004,VALID,133,VALID,0.504179,
2004-11-26, 00:51:00,VALID,918.165,VALID,0,VALID,100,VALID,0,VALID,20.0937,VALID,123,VALID,0.448847,
2004-11-26, 00:52:00,VALID,918.152,VALID,0,VALID,100,VALID,0,VALID,20.094,VALID,105,VALID,0.831032,
2004-11-26, 00:53:00,VALID,918.146,VALID,0,VALID,100,VALID,0,VALID,20.0908,VALID,117,VALID,0.939162,
2004-11-26, 00:54:00,VALID,918.134,VALID,0,VALID,100,VALID,0.0339617,VALID,20.0875,VALID,127,VALID,0.707031,
2004-11-26, 00:55:00,VALID,918.11,VALID,0,VALID,100,VALID,0,VALID,20.0813,VALID,123,VALID,0.9133,
2004-11-26, 00:56:00,VALID,918.102,VALID,0,VALID,100,VALID,0,VALID,20.0786,VALID,131,VALID,0.868359,
2004-11-26, 00:57:00,VALID,918.081,VALID,0,VALID,100,VALID,0.0339617,VALID,20.0719,VALID,133,VALID,1.13242,
2004-11-26, 00:58:00,VALID,918.076,VALID,0,VALID,100,VALID,0,VALID,20.0619,VALID,136,VALID,0.990854,
2004-11-26, 00:59:00,VALID,918.05,VALID,0,VALID,100,VALID,0.0169808,VALID,20.0485,VALID,154,VALID,0.871271,
2004-11-26, 01:00:00,VALID,918.039,VALID,0,VALID,100,VALID,0,VALID,20.052,VALID,137,VALID,1.5744,
2004-11-26, 01:01:00,VALID,918.023,VALID,0,VALID,100,VALID,0,VALID,20.0289,VALID,140,VALID,0.955669,
2004-11-26, 01:02:00,VALID,917.999,VALID,0,VALID,100,VALID,-0.0339617,VALID,20.0229,VALID,153,VALID,1.2698,
2004-11-26, 01:03:00,VALID,917.998,VALID,0,VALID,100,VALID,-0.0339617,VALID,20.0234,VALID,142,VALID,1.06008,
2004-11-26, 01:04:00,VALID,917.978,VALID,0,VALID,100,VALID,-0.0169808,VALID,20.0098,VALID,160,VALID,1.12729,
2004-11-26, 01:05:00,VALID,917.963,VALID,0,VALID,100,VALID,0,VALID,20.017,VALID,158,VALID,1.37891,
2004-11-26, 01:06:00,VALID,917.956,VALID,0,VALID,100,VALID,0,VALID,19.9998,VALID,175,VALID,1.09018,
2004-11-26, 01:07:00,VALID,917.948,VALID,0,VALID,100,VALID,-0.0169808,VALID,20.0103,VALID,161,VALID,0.707508,
2004-11-26, 01:08:00,VALID,917.94,VALID,0,VALID,100,VALID,0,VALID,20.0003,VALID,161,VALID,0.923735,
2004-11-26, 01:09:00,VALID,917.93,VALID,0,VALID,100,VALID,0,VALID,19.9968,VALID,152,VALID,0.912729,
2004-11-26, 01:10:00,VALID,917.912,VALID,0,VALID,100,VALID,0.0169808,VALID,19.9914,VALID,150,VALID,0.702035,
2004-11-26, 01:11:00,VALID,917.905,VALID,0,VALID,100,VALID,0,VALID,19.9911,VALID,139,VALID,0.729469,
2004-11-26, 01:12:00,VALID,917.885,VALID,0,VALID,100,VALID,0,VALID,19.9944,VALID,157,VALID,1.06123,
2004-11-26, 01:13:00,VALID,917.87,VALID,0,VALID,100,VALID,0,VALID,19.9777,VALID,145,VALID,1.00509,
2004-11-26, 01:14:00,VALID,917.838,VALID,0,VALID,100,VALID,-0.0169808,VALID,19.9777,VALID,159,VALID,1.17374,
2004-11-26, 01:15:00,VALID,917.817,VALID,0,VALID,100,VALID,0,VALID,19.9715,VALID,139,VALID,0.963481,
2004-11-26, 01:16:00,VALID,917.807,VALID,0,VALID,100,VALID,0,VALID,19.9812,VALID,139,VALID,0.857227,
2004-11-26, 01:17:00,VALID,917.787,VALID,0,VALID,100,VALID,0,VALID,19.975,VALID,151,VALID,0.772905,
2004-11-26, 01:18:00,VALID,917.762,VALID,0,VALID,100,VALID,0,VALID,19.9745,VALID,142,VALID,1.00462,
2004-11-26, 01:19:00,VALID,917.745,VALID,0,VALID,100,VALID,0,VALID,19.978,VALID,132,VALID,0.790516,
2004-11-26, 01:20:00,VALID,917.728,VALID,0,VALID,100,VALID,-0.0169808,VALID,19.9745,VALID,136,VALID,1.00167,
2004-11-26, 01:21:00,VALID,917.711,VALID,0,VALID,100,VALID,0,VALID,19.972,VALID,139,VALID,1.13554,
2004-11-26, 01:22:00,VALID,917.694,VALID,0,VALID,100,VALID,0,VALID,19.972,VALID,142,VALID,0.858103,
2004-11-26, 01:23:00,VALID,917.671,VALID,0,VALID,100,VALID,0,VALID,19.9323,VALID,144,VALID,1.21719,
2004-11-26, 01:24:00,VALID,917.662,VALID,0,VALID,100,VALID,-0.0169808,VALID,19.9365,VALID,142,VALID,1.24447,
2004-11-26, 01:25:00,VALID,917.646,VALID,0,VALID,100,VALID,-0.0169808,VALID,19.9397,VALID,146,VALID,0.884115,
2004-11-26, 01:26:00,VALID,917.639,VALID,0,VALID,100,VALID,-0.0339617,VALID,19.9365,VALID,149,VALID,0.894618,
2004-11-26, 01:27:00,VALID,917.639,VALID,0,VALID,100,VALID,-0.0169808,VALID,19.9333,VALID,157,VALID,0.844141,
2004-11-26, 01:28:00,VALID,917.627,VALID,0,VALID,100,VALID,0,VALID,19.9492,VALID,152,VALID,1.32315,
2004-11-26, 01:29:00,VALID,917.604,VALID,0,VALID,100,VALID,0,VALID,19.9464,VALID,155,VALID,0.979992,
2004-11-26, 01:30:00,VALID,917.6,VALID,0,VALID,100,VALID,0,VALID,19.9529,VALID,155,VALID,0.542515,
2004-11-26, 01:31:00,VALID,917.586,VALID,0,VALID,100,VALID,0,VALID,19.9492,VALID,149,VALID,1.00686,
2004-11-26, 01:32:00,VALID,917.568,VALID,0,VALID,100,VALID,0,VALID,19.9357,VALID,133,VALID,1.2487,
2004-11-26, 01:33:00,VALID,917.563,VALID,0,VALID,100,VALID,-0.0169808,VALID,19.9429,VALID,136,VALID,0.464026,
2004-11-26, 01:34:00,VALID,917.555,VALID,0.2,VALID,100,VALID,-0.0169808,VALID,19.9362,VALID,140,VALID,0.983285,
2004-11-26, 01:35:00,VALID,917.539,VALID,0,VALID,100,VALID,-0.0169808,VALID,19.9236,VALID,121,VALID,0.934211,
2004-11-26, 01:36:00,VALID,917.538,VALID,0,VALID,100,VALID,0,VALID,19.9134,VALID,111,VALID,0.888445,
2004-11-26, 01:37:00,VALID,917.513,VALID,0,VALID,100,VALID,-0.0339617,VALID,19.8843,VALID,106,VALID,1.17406,
2004-11-26, 01:38:00,VALID,917.502,VALID,0,VALID,100,VALID,0.0169808,VALID,19.8682,VALID,109,VALID,0.942264,
2004-11-26, 01:39:00,VALID,917.475,VALID,0,VALID,100,VALID,0,VALID,19.862,VALID,90,VALID,0.830543,
2004-11-26, 01:40:00,VALID,917.467,VALID,0,VALID,100,VALID,-0.0339617,VALID,19.8784,VALID,84,VALID,0.631722,
2004-11-26, 01:41:00,VALID,917.454,VALID,0,VALID,100,VALID,0,VALID,19.8652,VALID,100,VALID,0.97218,
2004-11-26, 01:42:00,VALID,917.438,VALID,0,VALID,100,VALID,-0.0169808,VALID,19.8458,VALID,96,VALID,0.792515,
2004-11-26, 01:43:00,VALID,917.414,VALID,0,VALID,100,VALID,0,VALID,19.8197,VALID,89,VALID,1.06822,
2004-11-26, 01:44:00,VALID,917.387,VALID,0,VALID,100,VALID,0,VALID,19.817,VALID,102,VALID,1.0202,
2004-11-26, 01:45:00,VALID,917.36,VALID,0,VALID,100,VALID,-0.0339617,VALID,19.8105,VALID,75,VALID,0.454613,
2004-11-26, 01:46:00,VALID,917.338,VALID,0,VALID,100,VALID,-0.0339617,VALID,19.8068,VALID,97,VALID,0.776634,
2004-11-26, 01:47:00,VALID,917.316,VALID,0,VALID,100,VALID,0.101885,VALID,19.7959,VALID,92,VALID,0.81064,
2004-11-26, 01:48:00,VALID,917.286,VALID,0,VALID,100,VALID,0.0849042,VALID,19.7767,VALID,93,VALID,0.495916,
2004-11-26, 01:49:00,VALID,917.268,VALID,0.2,VALID,100,VALID,0.101885,VALID,19.7571,VALID,115,VALID,0.649368,
2004-11-26, 01:50:00,VALID,917.236,VALID,0,VALID,100,VALID,0.0849042,VALID,19.7541,VALID,122,VALID,0.242378,
2004-11-26, 01:51:00,VALID,917.209,VALID,0,VALID,100,VALID,0.0849042,VALID,19.7603,VALID,122,VALID,0.175071,
2004-11-26, 01:52:00,VALID,917.185,VALID,0,VALID,100,VALID,0.101885,VALID,19.7536,VALID,95,VALID,0.525,
2004-11-26, 01:53:00,VALID,917.164,VALID,0,VALID,100,VALID,0.0849042,VALID,19.7512,VALID,116,VALID,0.768532,
2004-11-26, 01:54:00,VALID,917.135,VALID,0,VALID,100,VALID,0.101885,VALID,19.7313,VALID,120,VALID,0.730655,
2004-11-26, 01:55:00,VALID,917.122,VALID,0,VALID,100,VALID,0.0509425,VALID,19.7281,VALID,138,VALID,0.595274,
2004-11-26, 01:56:00,VALID,917.104,VALID,0,VALID,100,VALID,0.135847,VALID,19.7117,VALID,130,VALID,0.813477,
2004-11-26, 01:57:00,VALID,917.098,VALID,0,VALID,100,VALID,0.118866,VALID,19.7216,VALID,107,VALID,0.475446,
2004-11-26, 01:58:00,VALID,917.086,VALID,0,VALID,100,VALID,0.101885,VALID,19.7343,VALID,123,VALID,0.849964,
2004-11-26, 01:59:00,VALID,917.073,VALID,0,VALID,100,VALID,0.101885,VALID,19.7209,VALID,134,VALID,0.821243,
2004-11-26, 02:00:00,VALID,917.057,VALID,0,VALID,100,VALID,0.135847,VALID,19.7181,VALID,132,VALID,0.570494,
2004-11-26, 02:01:00,VALID,917.058,VALID,0,VALID,99.9466,VALID,0.101885,VALID,19.7318,VALID,125,VALID,1.35527,
2004-11-26, 02:02:00,VALID,917.042,VALID,0,VALID,99.9087,VALID,-0.0169808,VALID,19.7268,VALID,129,VALID,1.02587,
2004-11-26, 02:03:00,VALID,917.025,VALID,0,VALID,99.868,VALID,-0.0169808,VALID,19.7233,VALID,136,VALID,0.943109,
2004-11-26, 02:04:00,VALID,917.023,VALID,0,VALID,99.7065,VALID,-0.0169808,VALID,19.7136,VALID,117,VALID,1.12835,
2004-11-26, 02:05:00,VALID,917.02,VALID,0,VALID,99.7358,VALID,0,VALID,19.7169,VALID,127,VALID,1.06734,
2004-11-26, 02:06:00,VALID,917.009,VALID,0.2,VALID,99.7421,VALID,-0.0169808,VALID,19.7201,VALID,112,VALID,0.927778,
2004-11-26, 02:07:00,VALID,917.005,VALID,0,VALID,99.779,VALID,0,VALID,19.7072,VALID,105,VALID,0.362351,
2004-11-26, 02:08:00,VALID,916.984,VALID,0,VALID,99.7675,VALID,0,VALID,19.7171,VALID,117,VALID,0.84593,
2004-11-26, 02:09:00,VALID,916.974,VALID,0,VALID,99.6976,VALID,0,VALID,19.7072,VALID,115,VALID,0.732195,
2004-11-26, 02:10:00,VALID,916.968,VALID,0,VALID,99.6137,VALID,0,VALID,19.6945,VALID,123,VALID,0.603795,
2004-11-26, 02:11:00,VALID,916.948,VALID,0,VALID,99.5488,VALID,0,VALID,19.6712,VALID,110,VALID,0.7125,
2004-11-26, 02:12:00,VALID,916.936,VALID,0,VALID,99.4878,VALID,-0.0339617,VALID,19.6585,VALID,106,VALID,0.630022,
2004-11-26, 02:13:00,VALID,916.916,VALID,0,VALID,99.5107,VALID,0.0169808,VALID,19.6523,VALID,82,VALID,0.527876,
2004-11-26, 02:14:00,VALID,916.897,VALID,0,VALID,99.4255,VALID,0,VALID,19.6456,VALID,102,VALID,0.485305,
2004-11-26, 02:15:00,VALID,916.885,VALID,0,VALID,99.306,VALID,0,VALID,19.6327,VALID,102,VALID,0.718945,
2004-11-26, 02:16:00,VALID,916.858,VALID,0,VALID,99.2437,VALID,0,VALID,19.6269,VALID,98,VALID,0.587936,
2004-11-26, 02:17:00,VALID,916.851,VALID,0,VALID,99.1686,VALID,0,VALID,19.6041,VALID,95,VALID,0.792259,
2004-11-26, 02:18:00,VALID,916.832,VALID,0,VALID,99.1356,VALID,0.0339617,VALID,19.6004,VALID,114,VALID,0.721977,
2004-11-26, 02:19:00,VALID,916.814,VALID,0,VALID,99.0618,VALID,0.0169808,VALID,19.5842,VALID,117,VALID,0.956676,
2004-11-26, 02:20:00,VALID,916.796,VALID,0,VALID,99.0364,VALID,0,VALID,19.5783,VALID,121,VALID,0.878997,
2004-11-26, 02:21:00,VALID,916.798,VALID,0,VALID,99.03,VALID,0,VALID,19.5651,VALID,120,VALID,0.745486,
2004-11-26, 02:22:00,VALID,916.772,VALID,0,VALID,99.0287,VALID,-0.0339617,VALID,19.5691,VALID,90,VALID,0.69186,
2004-11-26, 02:23:00,VALID,916.768,VALID,0,VALID,99.0796,VALID,0.0169808,VALID,19.5584,VALID,104,VALID,0.7004,
2004-11-26, 02:24:00,VALID,916.758,VALID,0,VALID,99.0872,VALID,0,VALID,19.5489,VALID,81,VALID,0.608817,
2004-11-26, 02:25:00,VALID,916.741,VALID,0,VALID,99.1546,VALID,0,VALID,19.5527,VALID,116,VALID,0.466518,
2004-11-26, 02:26:00,VALID,916.743,VALID,0,VALID,99.2564,VALID,-0.0169808,VALID,19.5557,VALID,124,VALID,0.274962,
2004-11-26, 02:27:00,VALID,916.728,VALID,0,VALID,99.2233,VALID,-0.0169808,VALID,19.5427,VALID,98,VALID,0.700284,
2004-11-26, 02:28:00,VALID,916.728,VALID,0,VALID,99.2093,VALID,-0.0169808,VALID,19.5296,VALID,102,VALID,0.716264,
2004-11-26, 02:29:00,VALID,916.723,VALID,0,VALID,99.1724,VALID,0,VALID,19.5097,VALID,81,VALID,0.494093,
2004-11-26, 02:30:00,VALID,916.727,VALID,0,VALID,99.2398,VALID,0,VALID,19.5035,VALID,64,VALID,0.253348,
2004-11-26, 02:31:00,VALID,916.716,VALID,0,VALID,99.203,VALID,0,VALID,19.4933,VALID,95,VALID,1.07102,
2004-11-26, 02:32:00,VALID,916.707,VALID,0,VALID,99.1953,VALID,0,VALID,19.497,VALID,72,VALID,0.559832,
2004-11-26, 02:33:00,VALID,916.687,VALID,0,VALID,99.2169,VALID,-0.0169808,VALID,19.5005,VALID,75,VALID,0.586293,
2004-11-26, 02:34:00,VALID,916.686,VALID,0,VALID,99.2004,VALID,0,VALID,19.4941,VALID,75,VALID,0.637355,
2004-11-26, 02:35:00,VALID,916.684,VALID,0,VALID,99.2627,VALID,0.0169808,VALID,19.4906,VALID,85,VALID,0.673399,
2004-11-26, 02:36:00,VALID,916.675,VALID,0,VALID,99.3365,VALID,0.0169808,VALID,19.4906,VALID,103,VALID,0.603609,
2004-11-26, 02:37:00,VALID,916.677,VALID,0,VALID,99.3441,VALID,-0.0169808,VALID,19.4844,VALID,113,VALID,0.446615,
2004-11-26, 02:38:00,VALID,916.686,VALID,0,VALID,99.4585,VALID,-0.0339617,VALID,19.4749,VALID,113,VALID,0.422637,
2004-11-26, 02:39:00,VALID,916.673,VALID,0,VALID,99.5552,VALID,0,VALID,19.4749,VALID,114,VALID,0.410528,
2004-11-26, 02:40:00,VALID,916.682,VALID,0,VALID,99.6468,VALID,0,VALID,19.462,VALID,133,VALID,0.683866,
2004-11-26, 02:41:00,VALID,916.685,VALID,0,VALID,99.6874,VALID,0,VALID,19.4618,VALID,149,VALID,0.678622,
2004-11-26, 02:42:00,VALID,916.688,VALID,0,VALID,99.7777,VALID,0,VALID,19.4558,VALID,147,VALID,0.919618,
2004-11-26, 02:43:00,VALID,916.68,VALID,0,VALID,99.8858,VALID,0,VALID,19.4625,VALID,145,VALID,0.950521,
2004-11-26, 02:44:00,VALID,916.694,VALID,0,VALID,99.9825,VALID,-0.0169808,VALID,19.469,VALID,152,VALID,0.733631,
2004-11-26, 02:45:00,VALID,916.696,VALID,0,VALID,100,VALID,0,VALID,19.462,VALID,152,VALID,0.430197,
2004-11-26, 02:46:00,VALID,916.692,VALID,0,VALID,100,VALID,-0.0339617,VALID,19.4819,VALID,155,VALID,0.73274,
2004-11-26, 02:47:00,VALID,916.686,VALID,0,VALID,100,VALID,0.0169808,VALID,19.4781,VALID,122,VALID,0.685505,
2004-11-26, 02:48:00,VALID,916.691,VALID,0,VALID,100,VALID,0.0169808,VALID,19.4881,VALID,123,VALID,1.13972,
2004-11-26, 02:49:00,VALID,916.695,VALID,0,VALID,100,VALID,0,VALID,19.4685,VALID,124,VALID,0.697674,
2004-11-26, 02:50:00,VALID,916.689,VALID,0,VALID,100,VALID,0,VALID,19.4618,VALID,107,VALID,0.672965,
2004-11-26, 02:51:00,VALID,916.685,VALID,0,VALID,100,VALID,0.0339617,VALID,19.4553,VALID,128,VALID,0.914648,
2004-11-26, 02:52:00,VALID,916.672,VALID,0,VALID,100,VALID,0,VALID,19.4558,VALID,117,VALID,0.95277,
2004-11-26, 02:53:00,VALID,916.664,VALID,0,VALID,100,VALID,0.0169808,VALID,19.4424,VALID,105,VALID,0.477951,
2004-11-26, 02:54:00,VALID,916.659,VALID,0,VALID,100,VALID,0.0169808,VALID,19.4394,VALID,115,VALID,0.735491,
2004-11-26, 02:55:00,VALID,916.661,VALID,0,VALID,100,VALID,0,VALID,19.4292,VALID,109,VALID,0.500178,
2004-11-26, 02:56:00,VALID,916.656,VALID,0,VALID,100,VALID,0.0169808,VALID,19.4329,VALID,122,VALID,0.661882,
2004-11-26, 02:57:00,VALID,916.652,VALID,0,VALID,100,VALID,0,VALID,19.4237,VALID,132,VALID,0.626488,
2004-11-26, 02:58:00,VALID,916.651,VALID,0,VALID,100,VALID,-0.0169808,VALID,19.4039,VALID,135,VALID,0.738376,
2004-11-26, 02:59:00,VALID,916.651,VALID,0,VALID,100,VALID,0,VALID,19.4004,VALID,143,VALID,0.954368,
2004-11-26, 03:00:00,VALID,916.655,VALID,0,VALID,100,VALID,-0.0169808,VALID,19.4004,VALID,145,VALID,1.02453,
2004-11-26, 03:01:00,VALID,916.659,VALID,0,VALID,100,VALID,0.0339617,VALID,19.4133,VALID,141,VALID,1.12016,
2004-11-26, 03:02:00,VALID,916.662,VALID,0,VALID,100,VALID,0.0169808,VALID,19.4267,VALID,140,VALID,0.975836,
2004-11-26, 03:03:00,VALID,916.662,VALID,0,VALID,100,VALID,-0.0169808,VALID,19.4133,VALID,134,VALID,1.05373,
2004-11-26, 03:04:00,VALID,916.662,VALID,0,VALID,100,VALID,0.0169808,VALID,19.42,VALID,125,VALID,0.962209,
2004-11-26, 03:05:00,VALID,916.659,VALID,0,VALID,100,VALID,0,VALID,19.42,VALID,140,VALID,0.997852,
2004-11-26, 03:06:00,VALID,916.657,VALID,0,VALID,100,VALID,0.0169808,VALID,19.4364,VALID,142,VALID,0.971007,
2004-11-26, 03:07:00,VALID,916.655,VALID,0,VALID,100,VALID,0,VALID,19.4434,VALID,144,VALID,1.25117,
2004-11-26, 03:08:00,VALID,916.655,VALID,0,VALID,100,VALID,0,VALID,19.4468,VALID,140,VALID,1.23342,
2004-11-26, 03:09:00,VALID,916.655,VALID,0,VALID,100,VALID,0,VALID,19.4364,VALID,145,VALID,1.03354,
2004-11-26, 03:10:00,VALID,916.641,VALID,0,VALID,100,VALID,0.0169808,VALID,19.4267,VALID,148,VALID,1.18932,
2004-11-26, 03:11:00,VALID,916.642,VALID,0,VALID,100,VALID,0,VALID,19.4304,VALID,145,VALID,1.43626,
2004-11-26, 03:12:00,VALID,916.636,VALID,0,VALID,100,VALID,-0.0339617,VALID,19.43,VALID,136,VALID,1.39042,
2004-11-26, 03:13:00,VALID,916.626,VALID,0,VALID,100,VALID,0,VALID,19.427,VALID,131,VALID,0.92359,
2004-11-26, 03:14:00,VALID,916.619,VALID,0,VALID,100,VALID,-0.0169808,VALID,19.424,VALID,135,VALID,1.11504,
2004-11-26, 03:15:00,VALID,916.619,VALID,0,VALID,100,VALID,-0.0169808,VALID,19.4337,VALID,132,VALID,0.938021,
2004-11-26, 03:16:00,VALID,916.607,VALID,0,VALID,100,VALID,0,VALID,19.4237,VALID,145,VALID,1.10503,
2004-11-26, 03:17:00,VALID,916.596,VALID,0,VALID,100,VALID,-0.0169808,VALID,19.4367,VALID,135,VALID,1.04297,
2004-11-26, 03:18:00,VALID,916.598,VALID,0,VALID,100,VALID,-0.0169808,VALID,19.4401,VALID,124,VALID,1.12682,
2004-11-26, 03:19:00,VALID,916.606,VALID,0,VALID,100,VALID,-0.0169808,VALID,19.4404,VALID,121,VALID,1.01711,
2004-11-26, 03:20:00,VALID,916.603,VALID,0,VALID,100,VALID,-0.0169808,VALID,19.4332,VALID,154,VALID,1.00955,
2004-11-26, 03:21:00,VALID,916.612,VALID,0,VALID,100,VALID,0.0169808,VALID,19.4461,VALID,143,VALID,1.07467,
2004-11-26, 03:22:00,VALID,916.618,VALID,0,VALID,99.9977,VALID,0,VALID,19.4662,VALID,133,VALID,1.1715,
2004-11-26, 03:23:00,VALID,916.625,VALID,0,VALID,99.9883,VALID,-0.0169808,VALID,19.4625,VALID,131,VALID,1.23576,
2004-11-26, 03:24:00,VALID,916.61,VALID,0,VALID,99.9944,VALID,-0.0169808,VALID,19.4692,VALID,136,VALID,1.0971,
2004-11-26, 03:25:00,VALID,916.602,VALID,0,VALID,99.9644,VALID,0,VALID,19.4622,VALID,118,VALID,0.902071,
2004-11-26, 03:26:00,VALID,916.598,VALID,0,VALID,99.8909,VALID,-0.0169808,VALID,19.456,VALID,121,VALID,1.11458,
2004-11-26, 03:27:00,VALID,916.598,VALID,0,VALID,99.7739,VALID,-0.0169808,VALID,19.46,VALID,106,VALID,1.1081,
2004-11-26, 03:28:00,VALID,916.595,VALID,0,VALID,99.718,VALID,-0.0169808,VALID,19.4468,VALID,100,VALID,0.800409,
2004-11-26, 03:29:00,VALID,916.591,VALID,0,VALID,99.6328,VALID,-0.0169808,VALID,19.4493,VALID,119,VALID,1.11833,
2004-11-26, 03:30:00,VALID,916.587,VALID,0,VALID,99.5323,VALID,-0.0169808,VALID,19.4729,VALID,134,VALID,1.087,
2004-11-26, 03:31:00,VALID,916.578,VALID,0,VALID,99.3823,VALID,-0.0339617,VALID,19.4821,VALID,129,VALID,0.980841,
2004-11-26, 03:32:00,VALID,916.58,VALID,0,VALID,99.2411,VALID,-0.0679233,VALID,19.5047,VALID,112,VALID,0.971289,
2004-11-26, 03:33:00,VALID,916.588,VALID,0,VALID,99.1165,VALID,-0.0169808,VALID,19.5214,VALID,134,VALID,1.11052,
2004-11-26, 03:34:00,VALID,916.574,VALID,0,VALID,99.0122,VALID,0,VALID,19.5335,VALID,131,VALID,1.05684,
2004-11-26, 03:35:00,VALID,916.559,VALID,0,VALID,98.9079,VALID,-0.0339617,VALID,19.5532,VALID,132,VALID,1.41295,
2004-11-26, 03:36:00,VALID,916.555,VALID,0,VALID,98.7388,VALID,0,VALID,19.5725,VALID,107,VALID,1.72958,
2004-11-26, 03:37:00,VALID,916.537,VALID,0,VALID,98.6028,VALID,0,VALID,19.5788,VALID,126,VALID,1.75999,
2004-11-26, 03:38:00,VALID,916.524,VALID,0,VALID,98.5379,VALID,-0.0339617,VALID,19.5817,VALID,108,VALID,1.26424,
2004-11-26, 03:39:00,VALID,916.51,VALID,0,VALID,98.5621,VALID,-0.0169808,VALID,19.5986,VALID,96,VALID,1.15861,
2004-11-26, 03:40:00,VALID,916.503,VALID,0,VALID,98.5557,VALID,-0.0339617,VALID,19.5857,VALID,104,VALID,1.2669,
2004-11-26, 03:41:00,VALID,916.502,VALID,0,VALID,98.5405,VALID,-0.0509425,VALID,19.572,VALID,106,VALID,1.91497,